ニート彗星

272P/NEAT (2022)

English version
Home page
Updated on June 26, 2022

---------------------------------------------------------------------

・ プロフィール

・ 写真集

・ 軌道要素

Epoch 2022 Jan. 21.0 TT = JDT 2459600.5
T 2022 July 17.08827 TT                                 Rudenko
q   2.4321467            (2000.0)            P               Q
n   0.10467436     Peri.   27.90724     -0.71405296     -0.63605053
a   4.4590516      Node   109.47011     +0.57058832     -0.77083691
e   0.4545596      Incl.   18.07505     +0.40565668     -0.03535804
P   9.42
From 188 observations 2003 Dec. 1-2022 Jan. 27, mean residual 0".7.

・ 光度変化

        m1 = 14.0 + 5 logΔ + 10.0 log r

---------------------------------------------------------------------

軌道要素はM.P.E.C. 2022-C56に掲載されたものです。
光度グラフはComet for Windowsで作成したものです。

---------------------------------------------------------------------

Copyright(C) Seiichi Yoshida (comet@aerith.net). All rights reserved.